{"data":{"norad_id":68586,"epoch":"2026-05-25T02:42:47.743776Z","epoch_age_seconds":55356,"freshness":"FRESH","line1":"1 68586U 26072P   26145.11305259  .00031427  00000+0  84254-3 0  9996","line2":"2 68586  51.8767 288.2860 0000996 253.9841 106.1036 15.37705540  7831","mean_motion":15.3770554,"eccentricity":9.96e-5,"inclination_deg":51.8767,"raan_deg":288.286,"arg_perigee_deg":253.9841,"mean_anomaly_deg":106.1036,"bstar":0.00084254,"rev_number":783,"period_min":93.646017559383,"perigee_km":452.21571192006,"apogee_km":453.57645371015,"semimajor_km":6831.0330828151,"source":"CELESTRAK","updated_at":"2026-05-25T13:38:07.950910Z"}}